Location: Bidart
(43.4376°N, 1.5913°W)
Time: 05:45:46
(UTC+00:00)

H-2A DEB - Pass Details

Date: 16 April 2026
Orbit: 584 x 592 km, 98.2° (Epoch: 15 May)

Event Time Altitude Azimuth Distance (km) Brightness Sun altitude
Exits shadow 01:49:45 19° 343° (NNW) 1,441 ? -31.5°
Drops below altitude 10° 01:50:58 10° 345° (NNW) 1,928 ? -31.4°
Sets 01:53:08 0° 346° (NNW) 2,835 ? -31.2°
